Weather History for Du Bois, PA

Change the Weather History Date:

Tuesday, January 17, 2012

  Actual Average Record
Temperature  
Mean Temperature 41 °F 23 °F  
Max Temperature 51 °F 31 °F 58 °F (1990)
Min Temperature 31 °F 16 °F -21 °F (1982)
Degree Days  
Heating Degree Days 24 42  
Month to date heating degree days 629 704  
Since 1 July heating degree days 2520 3366  
Cooling Degree Days 0 0  
Month to date cooling degree days 0 0  
Year to date cooling degree days 0 0  
Moisture  
Dew Point 40 °F    
Average Humidity 85    
Maximum Humidity 100    
Minimum Humidity 70    
Precipitation  
Precipitation 0.45 in 0.11 in 1.51 in (1978)
Month to date precipitation 1.44 1.77  
Sea Level Pressure  
Sea Level Pressure 29.66 in    
Wind  
Wind Speed 16 mph (SW)    
Max Wind Speed 37 mph    
Max Gust Speed 53 mph    
Visibility 9 miles    
Events Rain    
T = Trace of Precipitation, MM = Missing Value Source: NWS Daily Summary

Daily Weather History Graph

Daily Weather History Graph

Search for Another Location

Airport:

Trip Planner

Search our weather history database for the weather conditions in past years. The results will help you decide how hot, cold, wet, or windy it might be!

Date:

Astronomy

Jan. 17, 2012 Rise Set
Actual Time 7:38 AM EST 5:13 PM EST
Civil Twilight 7:07 AM EST 5:43 PM EST
Nautical Twilight 6:33 AM EST 6:17 PM EST
Astronomical Twilight 6:00 AM EST 6:50 PM EST
Moon 1:55 AM EST (1/17) 12:05 PM EST (1/17)
Length of Visible Light 10h 35m
Length of Day
9h 35m
Waning Crescent, 35% of the Moon is Illuminated
Jan 17
Waning Crescent
Jan 23
New
Jan 30
First Quarter
Feb 7
Full
Feb 14
Last Quarter

Hourly Weather History & Observations

Time (EST) Temp. Windchill Dew Point Humidity Pressure Visibility Wind Dir Wind Speed Gust Speed Precip Events Conditions
12:56 AM 37.9 °F 30.9 °F 37.0 °F 97% 29.94 in 7.0 mi SW 10.4 mph 20.7 mph N/A   Overcast
1:56 AM 39.0 °F 32.3 °F 36.0 °F 89% 29.92 in 10.0 mi SW 10.4 mph - 0.01 in   Overcast
2:56 AM 39.2 °F 32.5 °F 37.4 °F 93% 29.86 in 10.0 mi SW 10.4 mph - N/A   Overcast
3:56 AM 39.9 °F 32.9 °F 37.0 °F 89% 29.88 in 10.0 mi SW 11.5 mph - N/A   Overcast
4:56 AM 41.0 °F 34.7 °F 37.9 °F 89% 29.86 in 9.0 mi SW 10.4 mph - 0.00 in Rain Light Rain
5:56 AM 41.0 °F 34.3 °F 39.0 °F 93% 29.84 in 9.0 mi SW 11.5 mph 19.6 mph 0.00 in   Overcast
6:56 AM 42.1 °F 35.7 °F 39.9 °F 92% 29.82 in 10.0 mi SW 11.5 mph 18.4 mph 0.01 in   Overcast
7:56 AM 43.0 °F 36.8 °F 41.0 °F 93% 29.80 in 8.0 mi SW 11.5 mph - 0.00 in Rain Light Rain
8:17 AM 42.8 °F 37.0 °F 41.0 °F 93% 29.75 in 5.0 mi SW 10.4 mph - 0.07 in Rain Light Rain
8:56 AM 43.0 °F 37.2 °F 42.1 °F 97% 29.77 in 4.0 mi SW 10.4 mph 19.6 mph 0.14 in Rain Light Rain
9:56 AM 45.0 °F 38.5 °F 43.0 °F 93% 29.72 in 10.0 mi SSW 13.8 mph 21.9 mph 0.06 in   Overcast
10:56 AM 46.0 °F 39.6 °F 45.0 °F 96% 29.68 in 7.0 mi SW 15.0 mph 27.6 mph 0.02 in   Overcast
11:32 AM 46.4 °F 39.8 °F 44.6 °F 93% 29.63 in 10.0 mi SW 16.1 mph 29.9 mph 0.05 in   Overcast
11:56 AM 46.4 °F 39.5 °F 44.6 °F 93% 29.60 in 10.0 mi SW 17.3 mph 25.3 mph N/A   Overcast
12:56 PM 48.0 °F - 45.0 °F 89% 29.60 in 10.0 mi SW 20.7 mph 35.7 mph N/A   Overcast
1:56 PM 48.2 °F - 46.4 °F 93% 29.54 in 10.0 mi SW 20.7 mph 33.4 mph N/A   Overcast
2:41 PM 50.0 °F - 46.4 °F 87% 29.52 in 10.0 mi SW 23.0 mph 31.1 mph N/A   Overcast
2:56 PM 50.0 °F - 46.0 °F 86% 29.52 in 10.0 mi SW 19.6 mph 34.5 mph N/A   Mostly Cloudy
3:17 PM 51.8 °F - 46.4 °F 82% 29.49 in 10.0 mi SW 20.7 mph 39.1 mph N/A   Mostly Cloudy
3:56 PM 50.0 °F - 46.0 °F 86% 29.50 in 10.0 mi SW 13.8 mph 25.3 mph N/A   Scattered Clouds
4:56 PM 50.0 °F - 45.0 °F 83% 29.51 in 10.0 mi SW 18.4 mph 25.3 mph N/A   Mostly Cloudy
5:40 PM 50.0 °F - 44.6 °F 82% 29.51 in 10.0 mi SW 19.6 mph 32.2 mph N/A   Overcast
5:56 PM 50.0 °F - 45.0 °F 83% 29.51 in 10.0 mi SW 20.7 mph 32.2 mph N/A   Overcast
6:48 PM 50.0 °F - 44.6 °F 82% 29.51 in 10.0 mi SW 25.3 mph 31.1 mph N/A   Mostly Cloudy
6:56 PM 50.0 °F - 44.1 °F 80% 29.52 in 10.0 mi SW 18.4 mph 34.5 mph N/A   Mostly Cloudy
7:19 PM 48.2 °F - 44.6 °F 87% 29.51 in 1.8 mi WSW 34.5 mph 43.7 mph 0.13 in Rain Rain
7:25 PM 46.4 °F 37.4 °F 42.8 °F 87% 29.52 in 2.0 mi SW 28.8 mph 49.5 mph 0.16 in Rain Light Rain
7:34 PM 46.4 °F 37.5 °F 42.8 °F 87% 29.53 in 10.0 mi West 27.6 mph 44.9 mph 0.16 in   Overcast
7:56 PM 44.6 °F 36.1 °F 39.2 °F 81% 29.56 in 10.0 mi West 21.9 mph 39.1 mph N/A   Overcast
8:21 PM 42.8 °F 33.5 °F 35.6 °F 76% 29.59 in 10.0 mi West 23.0 mph 38.0 mph N/A   Overcast
8:56 PM 41.0 °F 31.1 °F 33.8 °F 76% 29.62 in 10.0 mi West 23.0 mph 35.7 mph N/A   Overcast
9:56 PM 37.9 °F 27.6 °F 28.9 °F 70% 29.70 in 10.0 mi West 20.7 mph 40.3 mph N/A   Overcast
10:56 PM 35.1 °F 25.2 °F 27.0 °F 72% 29.75 in 10.0 mi West 16.1 mph 28.8 mph N/A   Overcast
11:28 PM 33.8 °F 22.2 °F 26.6 °F 75% 29.73 in 10.0 mi West 20.7 mph 27.6 mph N/A   Overcast
11:56 PM 32.0 °F 19.8 °F 25.0 °F 75% 29.77 in 10.0 mi West 20.7 mph 35.7 mph N/A   Overcast